| time (UTC) | temp C | wind direction | speed KPH | gust KPH | rain 1hr cm | rain 24hr cm | rain mn cm | humidity % | barometer mb |
| 20260504201528 | 18 | 153 | 12.9 | 27.4 | 0.00 | 0.00 | 0.00 | 37 | 1010.6 |
| 20260504200038 | 17 | 238 | 11.3 | 33.8 | 0.00 | 0.00 | 0.00 | 35 | 1010.7 |
| 20260504194528 | 18 | 235 | 11.3 | 24.1 | 0.00 | 0.00 | 0.00 | 33 | 1010.4 |
| 20260504193028 | 18 | 119 | 11.3 | 19.3 | 0.00 | 0.00 | 0.00 | 32 | 1010.9 |
| 20260504191546 | 17 | 0 | 4.8 | 16.1 | 0.00 | 0.00 | 0.00 | 32 | 1011.1 |
| 20260504190027 | 16 | 225 | 4.8 | 12.9 | 0.00 | 0.00 | 0.00 | 34 | 1011.4 |
| 20260504184612 | 16 | 238 | 1.6 | 19.3 | 0.00 | 0.00 | 0.00 | 35 | 1011.8 |
| 20260504184527 | 16 | 238 | 1.6 | 19.3 | 0.00 | 0.00 | 0.00 | 35 | 1011.8 |
| 20260504183039 | 17 | 5 | 12.9 | 20.9 | 0.00 | 0.00 | 0.00 | 35 | 1011.9 |
| 20260504181529 | 17 | 257 | 9.7 | 22.5 | 0.00 | 0.00 | 0.00 | 35 | 1012.1 |
| 20260504180030 | 16 | 219 | 12.9 | 25.7 | 0.00 | 0.00 | 0.00 | 40 | 1012.3 |
| 20260504174530 | 16 | 231 | 9.7 | 22.5 | 0.00 | 0.00 | 0.00 | 39 | 1012.4 |
| 20260504173029 | 16 | 226 | 6.4 | 20.9 | 0.00 | 0.00 | 0.00 | 37 | 1012.9 |
| 20260504171528 | 15 | 214 | 4.8 | 11.3 | 0.00 | 0.00 | 0.00 | 37 | 1013.1 |
| 20260504081529 | 0 | 336 | 0.0 | 3.2 | 0.00 | 0.00 | 0.00 | 70 | 1013.5 |
| 20260504044537 | 4 | 0 | 0.0 | 3.2 | 0.00 | 0.00 | 0.00 | 51 | 1014.2 |
| 20260504043029 | 4 | 0 | 0.0 | 4.8 | 0.00 | 0.00 | 0.00 | 50 | 1014.2 |
| 20260504041532 | 5 | 341 | 1.6 | 6.4 | 0.00 | 0.00 | 0.00 | 47 | 1014.2 |
| 20260504040033 | 5 | 342 | 4.8 | 6.4 | 0.00 | 0.00 | 0.00 | 46 | 1014.2 |
| 20260504034546 | 6 | 331 | 1.6 | 4.8 | 0.00 | 0.00 | 0.00 | 44 | 1014.2 |
| 20260504033029 | 7 | 336 | 1.6 | 4.8 | 0.00 | 0.00 | 0.00 | 43 | 1014.2 |
| 20260504031530 | 7 | 321 | 3.2 | 6.4 | 0.00 | 0.00 | 0.00 | 40 | 1014.2 |
| 20260504030042 | 8 | 297 | 1.6 | 4.8 | 0.00 | 0.00 | 0.00 | 38 | 1014.0 |
| 20260504024530 | 10 | 331 | 0.0 | 4.8 | 0.00 | 0.00 | 0.00 | 35 | 1013.7 |
| 20260504023031 | 11 | 313 | 1.6 | 3.2 | 0.00 | 0.00 | 0.00 | 32 | 1013.5 |
| 20260504021530 | 13 | 289 | 3.2 | 6.4 | 0.00 | 0.00 | 0.00 | 28 | 1013.3 |
| 20260504020032 | 14 | 277 | 3.2 | 9.7 | 0.00 | 0.00 | 0.00 | 23 | 1013.3 |
| 20260504014540 | 15 | 255 | 1.6 | 6.4 | 0.00 | 0.00 | 0.00 | 22 | 1013.3 |
| 20260504013033 | 16 | 281 | 3.2 | 6.4 | 0.00 | 0.00 | 0.00 | 21 | 1013.2 |
| 20260504011530 | 16 | 269 | 4.8 | 11.3 | 0.00 | 0.00 | 0.00 | 21 | 1013.3 |
| 20260504010030 | 17 | 277 | 3.2 | 14.5 | 0.00 | 0.00 | 0.00 | 21 | 1013.4 |
| 20260504004532 | 17 | 275 | 8.0 | 16.1 | 0.00 | 0.00 | 0.00 | 21 | 1013.4 |
| 20260504003035 | 17 | 264 | 9.7 | 19.3 | 0.00 | 0.00 | 0.00 | 17 | 1013.4 |
| 20260504001530 | 18 | 278 | 11.3 | 27.4 | 0.00 | 0.00 | 0.00 | 15 | 1013.5 |
| 20260504000030 | 19 | 254 | 14.5 | 25.7 | 0.00 | 0.00 | 0.00 | 16 | 1013.7 |
| 20260503234538 | 19 | 269 | 12.9 | 30.6 | 0.00 | 0.00 | 0.00 | 16 | 1013.8 |
| 20260503233030 | 19 | 256 | 17.7 | 35.4 | 0.00 | 0.00 | 0.00 | 15 | 1013.9 |
| 20260503231533 | 20 | 225 | 12.9 | 29.0 | 0.00 | 0.00 | 0.00 | 17 | 1013.9 |
| 20260503230030 | 20 | 263 | 9.7 | 37.0 | 0.00 | 0.00 | 0.00 | 16 | 1014.1 |
| 20260503224529 | 20 | 222 | 14.5 | 38.6 | 0.00 | 0.00 | 0.00 | 15 | 1014.0 |
| 20260503223030 | 21 | 271 | 20.9 | 40.2 | 0.00 | 0.00 | 0.00 | 15 | 1014.2 |
| 20260503221534 | 21 | 302 | 24.1 | 40.2 | 0.00 | 0.00 | 0.00 | 18 | 1014.4 |
| 20260503220031 | 21 | 263 | 16.1 | 30.6 | 0.00 | 0.00 | 0.00 | 18 | 1014.6 |
| 20260503214530 | 21 | 281 | 17.7 | 33.8 | 0.00 | 0.00 | 0.00 | 17 | 1014.7 |
| 20260503213036 | 21 | 254 | 14.5 | 38.6 | 0.00 | 0.00 | 0.00 | 19 | 1015.0 |
| 20260503211532 | 20 | 253 | 20.9 | 35.4 | 0.00 | 0.00 | 0.00 | 20 | 1015.2 |
| 20260503210031 | 20 | 261 | 17.7 | 40.2 | 0.00 | 0.00 | 0.00 | 19 | 1015.3 |
| 20260503204545 | 20 | 199 | 14.5 | 38.6 | 0.00 | 0.00 | 0.00 | 19 | 1015.5 |
| 20260503203031 | 20 | 236 | 11.3 | 37.0 | 0.00 | 0.00 | 0.00 | 20 | 1015.8 |